Location: Beacon Field Observatory
(38.7700°N, 77.0829°W)
Time: 14:07:59
(UTC-05:00)

UKube-1 - Pass Details

Date: 09 December 2019
Orbit: 613 x 618 km, 98.5° (Epoch: 28 January)

Event Time Altitude Azimuth Distance (km) Brightness Sun altitude
Rises 19:06:22 0° 348° (NNW) 2,898 ? -26.5°
Reaches altitude 10° 19:10:23 10° 311° (NW) 1,987 ? -27.3°
Maximum altitude 19:11:19 11° 298° (WNW) 1,943 ? -27.4°
Drops below altitude 10° 19:12:16 10° 285° (WNW) 1,984 ? -27.6°
Sets 19:16:16 0° 247° (WSW) 2,884 ? -28.4°
